Wind_Speed
22 20 23 22 24 25 23 20 20 19 19 18 18 17 16 14 12 9 6 5 6 8 9 10 12 14 16 17 19 19 20 20 21 22 24 26 27 30 33 35 36 36 37
24 23 25 24 26 26 25 20 19 19 20 19 18 16 14 13 11 10 8 7 8 9 11 13 16 18 19 21 22 23 24 24 25 26 26 25 24 24 25 28 30 33 35
26 28 27 25 26 25 25 20 18 19 20 20 18 18 17 16 16 13 11 11 12 14 15 17 19 22 23 25 26 26 27 28 30 30 28 28 27 27 27 28 30 31 32
31 30 26 25 26 26 26 20 16 20 23 22 21 19 19 17 17 16 15 16 18 19 21 23 25 27 28 30 31 32 32 33 34 34 35 35 34 33 32 32 33 34 36
29 26 25 26 27 27 25 18 16 22 24 26 23 21 21 21 20 19 20 21 24 26 27 30 31 32 33 35 36 36 36 38 39 39 39 39 40 40 39 38 38 39 40
27 26 28 29 28 24 18 16 19 22 24 26 26 26 25 26 26 27 27 28 30 32 34 36 38 39 39 40 40 40 42 43 43 44 43 42 43 45 45 44 45 45 46
28 29 29 29 27 22 20 21 21 24 24 25 29 29 31 30 32 32 33 35 37 38 41 42 45 46 45 47 47 47 46 46 47 48 49 51 50 51 52 52 54 54 55
32 33 32 29 26 24 22 24 26 26 23 24 27 30 32 35 36 38 39 41 42 45 46 48 50 51 52 52 54 55 53 52 51 53 56 55 58 57 57 58 60 63 61
35 35 33 27 25 24 24 26 29 23 22 24 28 31 32 36 39 41 42 45 47 49 52 55 56 56 58 58 58 58 58 57 59 58 59 62 63 63 63 65 65 61 59
37 36 34 29 26 25 29 30 28 25 23 26 30 33 37 39 41 44 46 47 47 50 52 55 58 60 60 60 60 60 60 59 61 63 66 68 69 70 70 67 61 60 60
38 36 34 30 28 30 31 32 27 26 29 32 33 37 38 39 43 45 46 48 54 54 58 60 62 63 65 65 63 61 62 66 67 71 73 73 71 69 68 67 66 65 64
38 37 33 31 31 33 32 32 30 29 30 33 37 38 40 44 46 50 51 56 59 61 62 63 66 68 69 67 66 66 69 71 75 74 73 68 67 68 70 70 70 71 72
37 36 33 33 35 36 34 33 32 33 34 38 41 43 46 48 50 55 57 59 61 64 68 68 68 67 67 67 68 70 74 75 73 71 71 71 69 66 62 61 62 63 66
38 38 37 38 38 39 37 35 36 37 39 42 46 48 51 52 55 60 58 59 65 68 66 68 72 71 71 70 73 76 73 73 74 71 67 62 57 55 55 55 56 57 56
41 41 41 41 41 40 39 38 37 41 44 44 46 50 53 55 61 63 63 63 64 65 69 73 74 74 75 77 73 73 73 67 64 63 62 62 62 61 60 60 60 60 60
43 42 42 42 41 41 42 41 40 42 44 49 51 53 56 61 63 62 62 62 63 69 73 75 77 76 74 78 74 68 64 64 65 63 58 54 50 48 46 45 44 43 44
44 42 43 43 43 45 44 42 43 44 48 52 52 54 60 61 61 60 59 64 68 72 76 79 77 77 76 70 65 60 58 51 45 41 38 35 34 32 31 31 30 29 28
43 42 43 44 45 45 46 45 46 49 52 54 54 57 62 61 59 60 64 65 69 77 78 78 78 75 70 59 53 49 42 36 32 27 24 22 20 19 18 17 15 15 16
45 44 44 46 45 47 47 45 50 52 53 53 57 61 59 59 59 63 64 70 74 76 76 78 74 68 56 48 42 35 29 24 20 18 17 17 18 19 19 18 18 18 19
47 46 46 44 46 47 47 51 53 53 55 57 60 58 57 57 62 65 69 70 74 74 76 68 65 53 43 34 28 24 21 19 18 20 21 21 21 21 21 22 23 23 23
50 48 48 48 48 49 50 53 54 54 56 59 59 56 56 60 63 67 71 74 73 72 66 61 50 40 33 27 21 19 19 21 22 23 24 26 28 29 29 32 34 34 33
49 49 50 51 49 51 55 53 53 57 58 57 56 56 56 61 65 69 73 73 70 68 59 49 38 34 27 24 19 20 21 24 26 28 30 33 34 37 40 43 45 44 44
49 50 51 51 50 55 52 54 55 55 56 55 53 57 60 63 65 67 70 71 72 62 53 42 33 28 24 22 22 24 27 30 34 36 38 41 45 48 49 48 49 51 51
50 52 52 52 54 52 54 53 56 53 55 55 58 60 62 64 66 66 67 69 66 58 47 37 32 31 30 26 26 28 30 33 39 41 43 46 50 53 56 58 60 60 60
51 53 53 53 52 53 54 55 56 54 55 58 60 61 63 65 65 66 66 64 58 53 40 36 33 33 32 32 34 35 37 40 44 48 51 54 57 58 61 64 63 63 63
51 51 51 51 51 51 54 56 56 56 58 59 61 61 64 65 66 67 63 57 54 43 35 35 33 33 34 35 37 40 44 49 52 54 56 60 62 64 65 64 65 67 68
Wind_Direction
262 275 285 293 307 313 319 319 318 321 323 319 324 328 337 339 343 346 337 315 292 277 276 283 288 286 286 284 285 285 286 287 286 287 288 289 283 277 274 273 273 274 273
263 273 281 289 305 310 314 310 308 314 311 311 316 315 317 324 328 325 318 305 295 289 289 289 287 284 284 284 284 284 284 283 283 282 285 287 290 291 287 283 281 278 278
261 274 281 290 301 304 306 302 299 305 309 300 304 309 307 307 310 307 296 292 290 288 285 286 287 285 285 284 282 281 281 280 278 280 281 280 280 281 281 281 282 282 282
266 277 283 290 297 300 300 292 302 303 295 293 294 299 301 301 301 297 295 294 293 289 286 287 289 288 288 288 287 285 284 282 279 279 280 280 280 278 276 276 277 278 278
268 272 282 293 294 300 299 281 303 318 299 288 288 290 295 294 293 292 294 291 289 289 290 289 291 291 289 287 286 285 285 285 285 283 280 280 278 277 277 279 280 277 275
264 272 281 292 292 295 292 276 294 303 304 291 290 290 286 287 289 291 291 290 292 290 291 291 292 294 293 292 287 286 286 286 285 285 284 282 279 279 279 279 281 281 277
266 273 280 288 288 287 285 287 305 290 300 295 289 288 291 291 291 292 292 293 293 293 293 293 293 292 290 291 290 286 288 290 290 286 287 287 285 282 280 278 279 282 280
267 274 279 284 283 283 287 290 306 305 296 294 289 289 291 292 292 294 295 296 295 294 294 294 292 292 291 288 288 286 284 286 292 293 290 288 291 285 281 280 279 279 277
267 272 275 277 280 283 285 293 305 300 293 288 288 290 293 293 295 294 295 295 294 293 292 290 290 289 288 288 286 284 283 288 288 290 290 292 294 292 287 287 283 279 275
265 270 274 275 277 283 289 294 301 290 287 287 289 289 290 291 292 291 291 290 294 295 294 296 294 292 291 289 287 287 288 287 292 293 293 293 292 291 289 286 280 278 275
265 269 271 275 277 282 287 296 295 285 281 285 287 288 287 287 292 295 288 292 299 299 297 295 296 295 293 290 289 290 296 295 292 292 293 292 290 288 286 284 282 278 275
265 267 269 273 279 282 289 297 292 284 277 281 290 293 295 292 297 296 295 291 297 298 299 297 295 296 293 291 291 290 290 291 292 292 292 290 289 287 283 279 276 274 272
264 266 269 274 279 283 289 294 290 291 282 279 285 293 292 294 294 302 298 294 295 296 297 297 297 295 297 297 294 293 293 295 294 294 294 292 288 284 280 277 274 272 268
262 266 268 275 280 284 290 291 288 287 286 286 288 291 293 294 297 300 299 295 297 300 300 298 298 301 301 300 299 298 298 298 296 295 293 290 287 286 283 280 277 274 272
262 264 268 275 279 280 286 292 291 288 286 289 290 289 293 294 298 298 301 298 300 301 299 299 301 303 303 303 304 302 300 297 295 292 291 290 288 286 284 281 278 276 273
262 266 270 274 277 279 282 289 289 288 286 288 290 293 293 297 299 299 301 300 299 299 299 301 304 306 308 309 303 301 298 295 293 293 292 290 288 285 284 283 282 280 277
264 267 270 272 274 276 281 285 286 286 286 293 295 294 297 299 298 299 300 299 299 299 301 303 308 310 311 306 304 299 298 298 295 294 293 292 290 288 286 285 285 286 286
263 268 270 273 274 276 280 285 286 284 292 296 294 296 299 299 299 300 300 299 300 299 303 307 310 312 307 304 301 304 301 297 295 293 291 292 290 289 290 292 291 292 297
263 268 272 274 275 277 279 285 282 287 294 293 295 299 299 300 298 300 303 299 300 305 309 310 313 313 310 308 307 303 300 297 294 297 299 305 314 317 322 325 324 321 320
262 265 270 276 275 276 281 280 284 289 294 292 297 299 300 299 301 302 302 305 307 308 310 313 316 316 314 311 307 301 302 305 315 324 322 320 323 325 327 326 321 317 313
260 264 268 271 273 277 277 282 286 292 292 293 297 300 300 300 302 304 305 307 309 313 314 316 317 314 308 304 301 306 316 325 327 328 328 326 326 325 320 320 321 318 315
261 264 266 270 274 276 281 286 289 289 291 295 296 297 299 300 303 304 307 310 313 314 312 315 312 310 303 303 312 319 318 320 322 321 322 321 320 318 316 315 314 313 311
260 263 265 270 274 279 282 286 288 290 291 294 296 298 300 303 304 306 308 311 312 311 311 309 302 298 296 305 309 313 312 316 319 316 316 314 314 313 312 310 309 308 305
259 262 267 272 276 280 284 285 288 290 293 293 295 299 303 303 303 305 307 309 308 307 305 300 295 291 294 300 303 302 304 308 312 310 310 309 308 308 307 307 306 306 305
259 263 268 272 277 280 283 284 286 290 293 293 298 303 303 303 304 305 307 306 304 304 298 295 292 291 293 299 301 303 303 304 307 306 305 304 302 302 303 303 301 300 299
260 264 267 272 278 280 280 282 285 291 294 299 302 302 303 303 304 306 306 303 303 297 292 292 292 293 295 298 298 297 298 299 298 300 297 297 298 295 295 296 297 296 293
Height
10901 10902 10902 10901 10901 10900 10898 10896 10894 10893 10891 10890 10888 10887 10885 10884 10882 10881 10880 10880 10881 10882 10882 10881 10880 10879 10877 10876 10875 10873 10872 10871 10869 10868 10866 10864 10862 10861 10860 10859 10859 10858 10858
10897 10898 10898 10899 10898 10897 10896 10894 10892 10891 10889 10888 10887 10886 10885 10884 10883 10882 10881 10881 10880 10880 10880 10879 10878 10876 10874 10872 10871 10869 10868 10866 10864 10863 10861 10860 10858 10856 10855 10854 10853 10852 10851
10894 10894 10895 10895 10895 10893 10892 10891 10890 10889 10887 10886 10886 10884 10883 10882 10881 10880 10880 10879 10879 10878 10877 10876 10875 10873 10871 10869 10867 10865 10863 10862 10859 10857 10856 10855 10853 10852 10850 10849 10848 10846 10845
10890 10891 10891 10891 10891 10890 10889 10887 10887 10886 10884 10883 10883 10882 10881 10880 10879 10878 10877 10876 10875 10874 10873 10872 10870 10869 10866 10864 10861 10860 10858 10855 10853 10852 10850 10849 10847 10845 10844 10842 10841 10840 10839
10886 10887 10887 10887 10887 10886 10885 10884 10883 10882 10881 10880 10880 10880 10878 10877 10876 10875 10874 10873 10871 10870 10868 10867 10865 10863 10861 10858 10855 10853 10852 10849 10846 10844 10843 10841 10839 10838 10837 10836 10834 10833 10832
10881 10882 10882 10883 10882 10882 10881 10881 10880 10878 10878 10877 10876 10876 10874 10873 10872 10871 10869 10868 10866 10864 10862 10860 10858 10856 10853 10849 10846 10844 10843 10841 10838 10836 10834 10833 10831 10829 10828 10827 10826 10825 10824
10876 10877 10878 10878 10878 10878 10878 10877 10876 10875 10873 10873 10872 10870 10869 10868 10866 10865 10863 10861 10859 10857 10854 10852 10849 10846 10843 10840 10837 10834 10832 10830 10829 10827 10824 10823 10822 10820 10818 10816 10814 10813 10813
10871 10872 10872 10873 10872 10873 10873 10873 10871 10870 10869 10868 10866 10865 10864 10862 10860 10858 10856 10854 10851 10849 10846 10843 10839 10837 10833 10829 10826 10823 10820 10819 10818 10816 10813 10810 10808 10807 10806 10804 10801 10799 10797
10866 10867 10867 10867 10867 10868 10868 10867 10866 10866 10864 10862 10861 10860 10858 10856 10853 10851 10849 10846 10843 10839 10836 10832 10828 10824 10820 10816 10813 10810 10808 10806 10804 10802 10799 10797 10793 10790 10788 10788 10785 10782 10782
10860 10861 10861 10862 10862 10862 10862 10862 10861 10860 10859 10857 10855 10853 10851 10849 10847 10844 10841 10837 10833 10829 10825 10820 10815 10811 10807 10802 10799 10797 10795 10792 10789 10785 10783 10781 10777 10774 10769 10766 10766 10765 10765
10853 10854 10855 10856 10856 10856 10857 10856 10855 10855 10854 10851 10849 10847 10844 10841 10839 10836 10832 10828 10824 10819 10815 10809 10804 10798 10794 10790 10787 10784 10781 10777 10773 10769 10766 10762 10759 10756 10752 10749 10747 10745 10744
10847 10848 10849 10849 10850 10850 10850 10850 10849 10849 10847 10845 10842 10839 10836 10833 10830 10827 10824 10818 10813 10808 10803 10798 10792 10787 10781 10777 10775 10770 10765 10761 10756 10751 10746 10742 10739 10736 10733 10731 10728 10725 10724
10840 10842 10842 10843 10843 10844 10844 10844 10844 10842 10840 10838 10834 10831 10828 10824 10820 10817 10812 10807 10801 10796 10791 10785 10780 10773 10769 10765 10760 10755 10750 10742 10736 10730 10726 10722 10718 10715 10712 10709 10707 10706 10704
10834 10836 10836 10837 10837 10838 10838 10838 10837 10835 10832 10829 10826 10823 10819 10815 10811 10806 10800 10795 10790 10783 10777 10772 10765 10760 10756 10750 10743 10735 10729 10723 10716 10710 10706 10701 10698 10696 10694 10692 10691 10690 10689
10827 10829 10829 10830 10831 10831 10831 10831 10829 10827 10824 10821 10817 10813 10809 10805 10801 10795 10790 10784 10778 10772 10765 10758 10752 10747 10740 10733 10724 10716 10709 10703 10697 10692 10688 10684 10682 10679 10677 10675 10673 10672 10673
10821 10822 10823 10824 10824 10825 10825 10824 10822 10818 10815 10811 10808 10804 10800 10795 10789 10784 10778 10773 10766 10760 10752 10745 10740 10732 10724 10715 10706 10699 10692 10686 10681 10676 10673 10669 10667 10665 10663 10661 10659 10658 10657
10814 10815 10815 10816 10817 10818 10817 10815 10813 10809 10806 10802 10798 10794 10789 10784 10778 10773 10768 10762 10755 10746 10739 10733 10726 10718 10709 10698 10690 10683 10677 10672 10667 10663 10661 10658 10656 10654 10653 10652 10650 10649 10647
10806 10807 10808 10808 10809 10809 10808 10807 10803 10800 10796 10793 10788 10784 10779 10772 10766 10762 10756 10750 10743 10734 10727 10719 10712 10704 10693 10684 10677 10670 10666 10662 10659 10656 10653 10651 10648 10647 10645 10643 10642 10641 10640
10798 10799 10800 10801 10801 10801 10799 10798 10793 10791 10787 10783 10778 10774 10769 10761 10754 10749 10743 10738 10730 10723 10714 10707 10698 10688 10679 10672 10667 10663 10659 10657 10654 10651 10649 10646 10644 10642 10640 10638 10637 10636 10635
10790 10792 10792 10793 10792 10791 10790 10787 10784 10782 10778 10773 10769 10764 10758 10751 10744 10737 10730 10725 10718 10710 10702 10692 10684 10675 10670 10665 10661 10658 10655 10652 10650 10647 10645 10643 10641 10639 10637 10635 10634 10632 10630
10781 10783 10784 10784 10783 10783 10780 10778 10776 10772 10768 10763 10758 10754 10748 10740 10733 10725 10717 10712 10706 10697 10688 10680 10673 10667 10663 10659 10656 10654 10651 10648 10646 10644 10642 10639 10636 10634 10632 10630 10628 10626 10623
10773 10774 10774 10773 10774 10773 10771 10769 10765 10761 10757 10752 10748 10743 10737 10730 10722 10715 10705 10699 10693 10686 10677 10671 10665 10661 10658 10655 10652 10649 10646 10643 10641 10639 10636 10634 10631 10629 10626 10623 10620 10617 10615
10764 10763 10763 10764 10765 10763 10761 10758 10755 10750 10746 10742 10738 10732 10727 10720 10713 10705 10697 10688 10681 10675 10667 10662 10658 10655 10652 10648 10645 10642 10639 10636 10634 10631 10629 10625 10622 10619 10616 10613 10611 10608 10605
10753 10753 10754 10755 10754 10753 10751 10748 10744 10740 10736 10732 10726 10721 10715 10709 10701 10695 10687 10679 10671 10665 10659 10654 10651 10648 10646 10643 10640 10637 10634 10631 10628 10623 10620 10617 10613 10609 10605 10602 10598 10595 10592
10744 10744 10745 10744 10744 10743 10741 10738 10734 10730 10726 10721 10715 10709 10703 10696 10689 10682 10675 10668 10660 10655 10650 10646 10644 10641 10639 10636 10634 10631 10629 10625 10622 10617 10612 10609 10604 10599 10594 10589 10585 10582 10578
10735 10735 10734 10735 10734 10732 10730 10727 10723 10720 10715 10710 10704 10698 10690 10682 10676 10668 10662 10655 10649 10644 10641 10639 10637 10634 10631 10628 10625 10622 10619 10615 10611 10607 10602 10597 10592 10587 10582 10577 10572 10568 10563